Terminal Aerodrome Forecast
Issued by NWS Charleston, WV

Current Version | Previous Version | Text Only | Print | Product List | Glossary Off
Versions: 1 2 3 4 5 6 7 8 9 10 11 12 13 14 15 16 17 18 19 20 21 22 23 24 25 26 27

327
FTUS41 KRLX 150545
TAFPKB
TAF
KPKB 150545Z 1506/1606 22009G17KT P6SM OVC008
     FM151300 23007KT P6SM OVC003
     FM151800 23008KT P6SM RA OVC010
     FM152200 22008KT 3SM +RA OVC010
     FM160200 23013G22KT 3SM +RA OVC015
     FM160500 23012G22KT 2SM +RA OVC015=

USA.gov is the U.S. government's official web portal to all federal, state and local government web resources and services.